This is the latest recevied weather packets stored in our database for station/object KJ6LNH-1. If no packets are shown the sender has not sent any weather packets the latest 1 day(s).
| Time | Temp. | Humidity | Pressure | Rain* | Wind** | Luminosity | Snow |
|---|---|---|---|---|---|---|---|
| 1777976109 | 10° C | 98% | 1013.2 hPa | 0 mm | 1.34 m/s, 222° | - | - |
| 1777975808 | 10° C | 98% | 1013.3 hPa | 0 mm | 1.34 m/s, 195° | - | - |
| 1777975508 | 10° C | 98% | 1013.2 hPa | 0 mm | 1.34 m/s, 228° | - | - |
| 1777975209 | 10° C | 98% | 1013.2 hPa | 0 mm | 1.34 m/s, 221° | - | - |
| 1777974948 | 10° C | 98% | 1013 hPa | 0 mm | 1.34 m/s, 212° | - | - |
| 1777974620 | 10° C | 98% | 1012.8 hPa | 0.25 mm | 1.34 m/s, 200° | - | - |
| 1777974309 | 10° C | 98% | 1012.9 hPa | 0.51 mm | 1.34 m/s, 192° | - | - |
| 1777973709 | 10° C | 98% | 1013.3 hPa | 0.76 mm | 1.34 m/s, 210° | - | - |
| 1777973409 | 10° C | 98% | 1013.3 hPa | 1.02 mm | 1.34 m/s, 208° | - | - |
| 1777973109 | 10° C | 98% | 1013.4 hPa | 1.02 mm | 1.34 m/s, 251° | - | - |
| 1777972849 | 10° C | 98% | 1013.5 hPa | 1.02 mm | 1.34 m/s, 200° | - | - |
| 1777971612 | 10° C | 99% | 1013.4 hPa | 1.27 mm | 0.89 m/s, 235° | - | - |
| 1777971308 | 10° C | 99% | 1013.4 hPa | 1.52 mm | 1.34 m/s, 208° | - | - |
| 1777971008 | 10° C | 99% | 1013.5 hPa | 1.52 mm | 1.34 m/s, 254° | - | - |
| 1777970408 | 10° C | 99% | 1013.7 hPa | 2.29 mm | 1.34 m/s, 205° | - | - |
| 1777970107 | 10° C | 99% | 1013.8 hPa | 2.29 mm | 1.34 m/s, 218° | - | - |
| 1777969807 | 10° C | 99% | 1013.8 hPa | 2.03 mm | 1.34 m/s, 200° | - | - |
| 1777968308 | 10° C | 99% | 1013.6 hPa | 2.79 mm | 1.79 m/s, 237° | - | - |
| 1777968007 | 10° C | 99% | 1013.6 hPa | 2.54 mm | 1.34 m/s, 240° | - | - |
| 1777967708 | 10° C | 99% | 1013.7 hPa | 2.29 mm | 0.89 m/s, 254° | - | - |
| 1777967408 | 10° C | 99% | 1013.7 hPa | 2.54 mm | 1.34 m/s, 193° | - | - |
| 1777966807 | 10° C | 99% | 1013.8 hPa | 2.03 mm | 1.34 m/s, 208° | - | - |
| 1777966507 | 10° C | 98% | 1013.9 hPa | 2.29 mm | 1.34 m/s, 234° | - | - |
| 1777966207 | 10° C | 98% | 1013.9 hPa | 2.29 mm | 1.34 m/s, 205° | - | - |
| 1777965308 | 10° C | 98% | 1013.9 hPa | 1.78 mm | 1.79 m/s, 240° | - | - |
* Rain latest hour (hover to see other rain measurements)
** Current wind speed in m/s (hover to see current wind gust speed)